H1 CPF 2 NER 2021 6 30 9 181 01 glonass143 H2 2007501 9143 46805 2021 6 30 0 0 0 2021 7 3 23 45 0 900 1 1 0 0 0 1 H9 10 0 59395 0.00000 0 -22505125.100 4711157.822 -11015128.915 10 0 59395 900.00000 0 -21081576.168 4136915.843 -13726553.789 10 0 59395 1800.00000 0 -19430920.215 3297831.753 -16170915.067 10 0 59395 2700.00000 0 -17613882.795 2180779.401 -18300651.771 10 0 59395 3600.00000 0 -15694635.420 785062.610 -20074334.699 10 0 59395 4500.00000 0 -13738164.211 -877296.840 -21457474.867 10 0 59395 5400.00000 0 -11807624.014 -2781811.581 -22423195.012 10 0 59395 6300.00000 0 -9961789.032 -4892312.020 -22952751.256 10 0 59395 7200.00000 0 -8252706.749 -7162228.662 -23035895.019 10 0 59395 8100.00000 0 -6723652.998 -9536320.465 -22671068.561 10 0 59395 9000.00000 0 -5407473.051 -11952777.569 -21865430.731 10 0 59395 9900.00000 0 -4325377.309 -14345610.991 -20634712.785 10 0 59395 10800.00000 0 -3486240.753 -16647229.925 -19002907.382 10 0 59395 11700.00000 0 -2886434.121 -18791099.460 -17001797.040 10 0 59395 12600.00000 0 -2510192.411 -20714368.023 -14670331.400 10 0 59395 13500.00000 0 -2330503.630 -22360355.214 -12053865.589 10 0 59395 14400.00000 0 -2310478.899 -23680796.514 -9203274.575 10 0 59395 15300.00000 0 -2405144.790 -24637751.400 -6173961.006 10 0 59395 16200.00000 0 -2563581.042 -25205095.683 -3024776.012 10 0 59395 17100.00000 0 -2731312.357 -25369536.195 183125.831 10 0 59395 18000.00000 0 -2852852.391 -25131106.082 3387474.761 10 0 59395 18900.00000 0 -2874291.787 -24503120.729 6526094.019 10 0 59395 19800.00000 0 -2745820.418 -23511596.972 9538104.401 10 0 59395 20700.00000 0 -2424076.979 -22194160.621 12365101.664 10 0 59395 21600.00000 0 -1874226.528 -20598488.689 14952284.189 10 0 59395 22500.00000 0 -1071678.117 -18780351.851 17249509.392 10 0 59395 23400.00000 0 -3369.913 -16801339.192 19212258.909 10 0 59395 24300.00000 0 1331432.686 -14726360.122 20802494.624 10 0 59395 25200.00000 0 2920860.137 -12621027.293 21989389.740 10 0 59395 26100.00000 0 4740695.543 -10549028.999 22749921.485 10 0 59395 27000.00000 0 6755155.610 -8569599.668 23069314.696 10 0 59395 27900.00000 0 8918164.635 -6735192.774 22941328.154 10 0 59395 28800.00000 0 11175069.906 -5089452.104 22368378.302 10 0 59395 29700.00000 0 13464728.727 -3665564.878 21361497.853 10 0 59395 30600.00000 0 15721881.768 -2485064.462 19940129.599 10 0 59395 31500.00000 0 17879715.265 -1557132.013 18131758.715 10 0 59395 32400.00000 0 19872506.537 -878425.634 15971389.711 10 0 59395 33300.00000 0 21638243.350 -433443.864 13500877.089 10 0 59395 34200.00000 0 23121108.179 -195408.017 10768121.691 10 0 59395 35100.00000 0 24273723.612 -127626.126 7826147.418 10 0 59395 36000.00000 0 25059064.659 -185280.831 4732075.525 10 0 59395 36900.00000 0 25451957.188 -317565.565 1546016.156 10 0 59395 37800.00000 0 25440098.927 -470078.294 -1670101.391 10 0 59395 38700.00000 0 25024559.345 -587370.931 -4853736.652 10 0 59395 39600.00000 0 24219736.637 -615545.635 -7942960.050 10 0 59395 40500.00000 0 23052773.083 -504786.980 -10877664.500 10 0 59395 41400.00000 0 21562452.933 -211721.495 -13600742.165 10 0 59395 42300.00000 0 19797629.041 298496.604 -16059202.514 10 0 59395 43200.00000 0 17815244.401 1050463.094 -18205209.287 10 0 59395 44100.00000 0 15678031.838 2057238.983 -19997015.627 10 0 59395 45000.00000 0 13451988.684 3319558.740 -21399778.862 10 0 59395 45900.00000 0 11203732.489 4825566.053 -22386239.022 10 0 59395 46800.00000 0 8997848.608 6551089.265 -22937248.049 10 0 59395 47700.00000 0 6894340.631 8460445.739 -23042139.656 10 0 59395 48600.00000 0 4946289.879 10507742.150 -22698933.023 10 0 59395 49500.00000 0 3197821.189 12638616.855 -21914366.791 10 0 59395 50400.00000 0 1682459.110 14792351.800 -20703763.022 10 0 59395 51300.00000 0 421942.058 16904266.032 -19090724.122 10 0 59395 52200.00000 0 -574457.460 18908291.032 -17106668.822 10 0 59395 53100.00000 0 -1310079.583 20739620.348 -14790216.463 10 0 59395 54000.00000 0 -1800486.433 22337322.963 -12186431.704 10 0 59395 54900.00000 0 -2072552.165 23646811.286 -9345944.444 10 0 59395 55800.00000 0 -2163073.653 24622060.634 -6323962.356 10 0 59395 56700.00000 0 -2116961.886 25227487.615 -3179195.382 10 0 59395 57600.00000 0 -1985091.704 25439409.070 27286.633 10 0 59395 58500.00000 0 -1821901.720 25247020.853 3233240.638 10 0 59395 59400.00000 0 -1682846.718 24652855.969 6376458.119 10 0 59395 60300.00000 0 -1621810.763 23672703.369 9395970.329 10 0 59395 61200.00000 0 -1688590.738 22334991.313 12233227.492 10 0 59395 62100.00000 0 -1926556.769 20679661.568 14833229.302 10 0 59395 63000.00000 0 -2370588.464 18756581.711 17145585.202 10 0 59395 63900.00000 0 -3045374.012 16623562.031 19125484.348 10 0 59395 64800.00000 0 -3964144.016 14344059.546 20734557.244 10 0 59395 65700.00000 0 -5127893.648 11984664.404 21941613.144 10 0 59395 66600.00000 0 -6525126.404 9612472.683 22723239.700 10 0 59395 67500.00000 0 -8132131.110 7292453.995 23064253.947 10 0 59395 68400.00000 0 -9913781.792 5084922.259 22957996.392 10 0 59395 69300.00000 0 -11824828.342 3043213.769 22406462.710 10 0 59395 70200.00000 0 -13811625.664 1211667.953 21420270.378 10 0 59395 71100.00000 0 -15814230.729 -376006.215 20018460.473 10 0 59395 72000.00000 0 -17768781.467 -1697910.904 18228137.739 10 0 59395 72900.00000 0 -19610059.494 -2744638.757 16083954.949 10 0 59395 73800.00000 0 -21274130.626 -3519423.008 13627450.484 10 0 59395 74700.00000 0 -22700953.312 -4037752.475 10906250.968 10 0 59395 75600.00000 0 -23836845.998 -4326467.924 7973153.488 10 0 59395 76500.00000 0 -24636709.817 -4422378.087 4885104.498 10 0 59395 77400.00000 0 -25065912.729 -4370453.938 1702094.938 10 0 59395 78300.00000 0 -25101755.160 -4221677.915 -1514007.012 10 0 59395 79200.00000 0 -24734454.564 -4030639.585 -4700662.606 10 0 59395 80100.00000 0 -23967606.447 -3852980.240 -7795884.474 10 0 59395 81000.00000 0 -22818101.604 -3742795.614 -10739449.328 10 0 59395 81900.00000 0 -21315502.217 -3750107.797 -13474076.996 10 0 59395 82800.00000 0 -19500902.584 -3918514.593 -15946551.900 10 0 59395 83700.00000 0 -17425322.022 -4283117.031 -18108764.471 10 0 59395 84600.00000 0 -15147697.243 -4868813.894 -19918651.706 10 0 59395 85500.00000 0 -12732558.507 -5689036.395 -21341018.191 10 0 59396 0.00000 0 -10247486.905 -6744977.360 -22348221.590 10 0 59396 900.00000 0 -7760459.123 -8025348.701 -22920709.425 10 0 59396 1800.00000 0 -5337190.592 -9506676.951 -23047396.847 10 0 59396 2700.00000 0 -3038588.060 -11154126.915 -22725878.567 10 0 59396 3600.00000 0 -918416.567 -12922817.565 -21962471.189 10 0 59396 4500.00000 0 978721.775 -14759576.477 -20772085.398 10 0 59396 5400.00000 0 2619014.376 -16605059.100 -19177930.900 10 0 59396 6300.00000 0 3980603.423 -18396144.427 -17211060.019 10 0 59396 7200.00000 0 5054242.599 -20068506.734 -14909759.074 10 0 59396 8100.00000 0 5843419.540 -21559255.777 -12318799.494 10 0 59396 9000.00000 0 6363940.717 -22809534.855 -9488563.378 10 0 59396 9900.00000 0 6642997.913 -23766967.840 -6474060.749 10 0 59396 10800.00000 0 6717757.371 -24387852.694 -3333857.802 10 0 59396 11700.00000 0 6633532.555 -24639009.566 -128937.223 10 0 59396 12600.00000 0 6441618.955 -24499206.133 3078486.922 10 0 59396 13500.00000 0 6196883.400 -23960100.640 6226176.477 10 0 59396 14400.00000 0 5955210.501 -23026663.360 9253075.087 10 0 59396 15300.00000 0 5770914.598 -21717059.078 12100489.187 10 0 59396 16200.00000 0 5694226.768 -20061995.744 14713221.332 10 0 59396 17100.00000 0 5768963.079 -18103566.580 17040634.314 10 0 59396 18000.00000 0 6030472.375 -15893633.988 19037625.883 10 0 59396 18900.00000 0 6503950.048 -13491822.371 20665495.964 10 0 59396 19800.00000 0 7203188.831 -10963202.927 21892690.382 10 0 59396 20700.00000 0 8129819.336 -8375766.062 22695407.412 10 0 59396 21600.00000 0 9273072.785 -5797785.506 23058056.196 10 0 59396 22500.00000 0 10610076.674 -3295182.454 22973558.597 10 0 59396 23400.00000 0 12106672.055 -928998.102 22443488.889 10 0 59396 24300.00000 0 13718719.589 1246921.754 21478048.469 10 0 59396 25200.00000 0 15393841.166 3187934.957 20095875.661 10 0 59396 26100.00000 0 17073525.690 4860221.518 18323693.568 10 0 59396 27000.00000 0 18695512.250 6241945.873 16195801.877 10 0 59396 27900.00000 0 20196352.047 7323915.084 13753421.355 10 0 59396 28800.00000 0 21514042.440 8109705.875 11043902.752 10 0 59396 29700.00000 0 22590623.003 8615255.626 8119814.524 10 0 59396 30600.00000 0 23374624.551 8867934.824 5037926.329 10 0 59396 31500.00000 0 23823267.676 8905140.286 1858107.755 10 0 59396 32400.00000 0 23904317.548 8772468.904 -1357836.419 10 0 59396 33300.00000 0 23597515.834 8521549.564 -4547371.532 10 0 59396 34200.00000 0 22895528.280 8207625.567 -7648454.796 10 0 59396 35100.00000 0 21804366.871 7886990.716 -10600749.037 10 0 59396 36000.00000 0 20343267.731 7614388.576 -13346803.939 10 0 59396 36900.00000 0 18544028.992 7440486.078 -15833180.885 10 0 59396 37800.00000 0 16449835.806 7409529.460 -18011498.810 10 0 59396 38700.00000 0 14113621.292 7557282.788 -19839380.170 10 0 59396 39600.00000 0 11596031.945 7909337.103 -21281278.240 10 0 59396 40500.00000 0 8963082.495 8479862.440 -22309169.579 10 0 59396 41400.00000 0 6283598.128 9270856.079 -22903098.315 10 0 59396 42300.00000 0 3626550.836 10271919.223 -23051561.888 10 0 59396 43200.00000 0 1058400.704 11460571.933 -22751731.166 10 0 59396 44100.00000 0 -1359447.440 12803093.413 -22009500.999 10 0 59396 45000.00000 0 -3572966.638 14255852.495 -20839370.625 10 0 59396 45900.00000 0 -5537513.766 15767072.615 -19264156.583 10 0 59396 46800.00000 0 -7219436.430 17278957.239 -17314543.921 10 0 59396 47700.00000 0 -8597215.034 18730086.484 -15028484.661 10 0 59396 48600.00000 0 -9662093.950 20057984.316 -12450455.371 10 0 59396 49500.00000 0 -10418177.139 21201748.463 -9630588.385 10 0 59396 50400.00000 0 -10881985.980 22104632.483 -6623693.839 10 0 59396 51300.00000 0 -11081499.708 22716471.467 -3488191.714 10 0 59396 52200.00000 0 -11054720.548 22995849.429 -284974.886 10 0 59396 53100.00000 0 -10847825.445 22911917.285 2923774.344 10 0 59396 54000.00000 0 -10512983.646 22445785.117 6075791.033 10 0 59396 54900.00000 0 -10105933.200 21591430.317 9109934.122 10 0 59396 55800.00000 0 -9683419.316 20356083.552 11967369.139 10 0 59396 56700.00000 0 -9300603.123 18760076.415 14592704.326 10 0 59396 57600.00000 0 -9008550.230 16836156.987 16935058.536 10 0 59396 58500.00000 0 -8851904.919 14628301.737 18949040.664 10 0 59396 59400.00000 0 -8866847.745 12190072.863 20595622.394 10 0 59396 60300.00000 0 -9079422.319 9582588.869 21842888.171 10 0 59396 61200.00000 0 -9504301.509 6872191.977 22666648.635 10 0 59396 62100.00000 0 -10144044.984 4127908.248 23050906.371 10 0 59396 63000.00000 0 -10988879.646 1418804.607 22988165.489 10 0 59396 63900.00000 0 -12017012.772 -1188648.743 22479579.244 10 0 59396 64800.00000 0 -13195465.695 -3633102.435 21534932.779 10 0 59396 65700.00000 0 -14481394.262 -5860635.030 20172460.915 10 0 59396 66600.00000 0 -15823841.941 -7826748.265 18418503.790 10 0 59396 67500.00000 0 -17165853.394 -9497968.420 16307006.108 10 0 59396 68400.00000 0 -18446860.956 -10852987.801 13878868.614 10 0 59396 69300.00000 0 -19605244.689 -11883299.174 11181163.349 10 0 59396 70200.00000 0 -20580958.947 -12593297.023 8266226.949 10 0 59396 71100.00000 0 -21318115.089 -12999841.699 5190648.852 10 0 59396 72000.00000 0 -21767411.244 -13131305.013 2014173.708 10 0 59396 72900.00000 0 -21888306.071 -13026137.827 -1201460.748 10 0 59396 73800.00000 0 -21650843.832 -12731020.465 -4393727.564 10 0 59396 74700.00000 0 -21037052.598 -12298674.648 -7500532.085 10 0 59396 75600.00000 0 -20041855.299 -11785430.170 -10461426.654 10 0 59396 76500.00000 0 -18673453.906 -11248650.116 -13218794.007 10 0 59396 77400.00000 0 -16953169.378 -10744124.469 -15718975.399 10 0 59396 78300.00000 0 -14914743.087 -10323543.376 -17913320.802 10 0 59396 79200.00000 0 -12603128.227 -10032157.782 -19759140.195 10 0 59396 80100.00000 0 -10072821.331 -9906727.157 -21220537.029 10 0 59396 81000.00000 0 -7385803.348 -9973841.607 -22269107.594 10 0 59396 81900.00000 0 -4609175.961 -10248689.700 -22884492.816 10 0 59396 82800.00000 0 -1812591.688 -10734324.229 -23054771.930 10 0 59396 83700.00000 0 934415.419 -11421457.068 -22776690.823 10 0 59396 84600.00000 0 3565087.672 -12288791.767 -22055720.933 10 0 59396 85500.00000 0 6017979.988 -13303879.869 -20905947.948 10 0 59397 0.00000 0 8239269.672 -14424464.767 -19349792.825 10 0 59397 900.00000 0 10184744.354 -15600256.584 -17417570.526 10 0 59397 1800.00000 0 11821386.788 -16775062.937 -15146895.899 10 0 59397 2700.00000 0 13128490.738 -17889186.060 -12581947.571 10 0 59397 3600.00000 0 14098264.336 -18881985.120 -9772604.949 10 0 59397 4500.00000 0 14735896.111 -19694495.627 -6773475.069 10 0 59397 5400.00000 0 15059083.314 -20271995.571 -3642828.497 10 0 59397 6300.00000 0 15097043.908 -20566410.098 -441465.181 10 0 59397 7200.00000 0 14889055.358 -20538453.352 2768467.315 10 0 59397 8100.00000 0 14482583.223 -20159417.288 5924680.019 10 0 59397 9000.00000 0 13931079.534 -19412532.104 8965949.633 10 0 59397 9900.00000 0 13291544.613 -18293841.077 11833302.907 10 0 59397 10800.00000 0 12621955.681 -16812552.925 14471155.522 10 0 59397 11700.00000 0 11978670.809 -14990856.634 16828383.744 10 0 59397 12600.00000 0 11413917.544 -12863206.187 18859308.560 10 0 59397 13500.00000 0 10973471.633 -10475104.435 20524573.951 10 0 59397 14400.00000 0 10694623.123 -7881436.044 21791903.145 10 0 59397 15300.00000 0 10604514.924 -5144417.963 22636718.925 10 0 59397 16200.00000 0 10718923.310 -2331251.421 23042616.762 10 0 59397 17100.00000 0 11041531.481 488428.417 23001682.150 10 0 59397 18000.00000 0 11563726.787 3245200.613 22514646.191 10 0 59397 18900.00000 0 12264930.615 5872496.025 21590876.426 10 0 59397 19800.00000 0 13113447.809 8309116.219 20248202.634 10 0 59397 20700.00000 0 14067800.919 10501530.175 18512580.303 10 0 59397 21600.00000 0 15078494.290 12405854.396 16417597.364 10 0 59397 22500.00000 0 16090134.906 13989434.720 14003832.644 10 0 59397 23400.00000 0 17043821.668 15231964.323 11318077.479 10 0 59397 24300.00000 0 17879703.108 16126091.603 8412434.602 10 0 59397 25200.00000 0 18539596.064 16677492.698 5343311.055 10 0 59397 26100.00000 0 18969554.686 16904405.743 2170324.309 10 0 59397 27000.00000 0 19122280.820 16836646.663 -1044857.227 10 0 59397 27900.00000 0 18959273.076 16514148.273 -4239716.585 10 0 59397 28800.00000 0 18452622.634 15985084.707 -7352109.449 10 0 59397 29700.00000 0 17586378.596 15303660.963 -10321479.761 10 0 59397 30600.00000 0 16357423.794 14527661.696 -13090045.219 10 0 59397 31500.00000 0 14775822.764 13715863.655 -15603928.644 10 0 59397 32400.00000 0 12864625.907 12925422.003 -17814212.530 10 0 59397 33300.00000 0 10659136.932 12209341.746 -19677895.649 10 0 59397 34200.00000 0 8205673.466 11614141.763 -21158732.718 10 0 59397 35100.00000 0 5559872.024 11177810.588 -22227940.691 10 0 59397 36000.00000 0 2784607.645 10928140.437 -22864758.039 10 0 59397 36900.00000 0 -52385.280 10881509.907 -23056846.355 10 0 59397 37800.00000 0 -2881092.148 11042166.483 -22800526.874 10 0 59397 38700.00000 0 -5631890.272 11402038.880 -22100847.655 10 0 59397 39600.00000 0 -8238203.040 11941086.745 -20971480.519 10 0 59397 40500.00000 0 -10639026.305 12628172.576 -19434450.064 10 0 59397 41400.00000 0 -12781222.553 13422418.696 -17519700.258 10 0 59397 42300.00000 0 -14621488.144 14274991.675 -15264507.266 10 0 59397 43200.00000 0 -16127912.764 15131238.593 -12712750.063 10 0 59397 44100.00000 0 -17281067.311 15933084.729 -9914053.177 10 0 59397 45000.00000 0 -18074576.133 16621591.212 -6922818.424 10 0 59397 45900.00000 0 -18515151.290 17139564.500 -3797164.716 10 0 59397 46800.00000 0 -18622088.999 17434107.344 -597796.754 10 0 59397 47700.00000 0 -18426250.970 17459003.437 2613175.019 10 0 59397 48600.00000 0 -17968574.956 17176835.041 5773440.036 10 0 59397 49500.00000 0 -17298178.408 16560744.207 8821695.238 10 0 59397 50400.00000 0 -16470136.066 15595763.249 11698831.110 10 0 59397 51300.00000 0 -15543025.738 14279658.355 14349073.279 10 0 59397 52200.00000 0 -14576345.879 12623250.532 16721057.903 10 0 59397 53100.00000 0 -13627913.666 10650200.018 18768820.431 10 0 59397 54000.00000 0 -12751352.680 8396262.495 20452679.371 10 0 59397 54900.00000 0 -11993775.291 5908047.245 21739998.731 10 0 59397 55800.00000 0 -11393756.456 3241327.979 22605815.149 10 0 59397 56700.00000 0 -10979683.367 458975.292 23033318.365 10 0 59397 57600.00000 0 -10768549.665 -2371404.793 23014176.229 10 0 59397 58500.00000 0 -10765244.502 -5180029.613 22548698.241 10 0 59397 59400.00000 0 -10962366.200 -7897591.336 21645834.405 10 0 59397 60300.00000 0 -11340568.591 -10457892.578 20323009.037 10 0 59397 61200.00000 0 -11869425.969 -12800357.896 18605792.050 10 0 59397 62100.00000 0 -12508781.012 -14872317.877 16527413.178 10 0 59397 63000.00000 0 -13210519.790 -16630971.600 14128127.445 10 0 59397 63900.00000 0 -13920699.847 -18044946.076 11454443.189 10 0 59397 64800.00000 0 -14581942.308 -19095387.922 8558226.598 10 0 59397 65700.00000 0 -15135987.382 -19776541.673 5495699.398 10 0 59397 66600.00000 0 -15526305.352 -20095790.492 2326348.752 10 0 59397 67500.00000 0 -15700652.295 -20073157.603 -888229.530 10 0 59397 68400.00000 0 -15613461.712 -19740289.500 -4085531.831 10 0 59397 69300.00000 0 -15227969.848 -19138964.010 -7203367.592 10 0 59397 70200.00000 0 -14517983.499 -18319186.486 -10181075.754 10 0 59397 71100.00000 0 -13469214.122 -17336955.053 -12960712.298 10 0 59397 72000.00000 0 -12080120.436 -16251789.903 -15488184.787 10 0 59397 72900.00000 0 -10362222.524 -15124131.687 -17714311.136 10 0 59397 73800.00000 0 -8339872.822 -14012719.490 -19595781.452 10 0 59397 74700.00000 0 -6049492.544 -12972059.670 -21096003.764 10 0 59397 75600.00000 0 -3538304.518 -12050092.681 -22185817.157 10 0 59397 76500.00000 0 -862614.712 -11286156.432 -22844058.492 10 0 59397 77400.00000 0 1914286.306 -10709331.947 -23057971.913 10 0 59397 78300.00000 0 4724514.957 -10337240.685 -22823453.565 10 0 59397 79200.00000 0 7498180.045 -10175343.685 -22145127.125 10 0 59397 80100.00000 0 10166054.649 -10216771.368 -21036249.041 10 0 59397 81000.00000 0 12662223.779 -10442690.448 -19518445.666 10 0 59397 81900.00000 0 14926598.155 -10823191.659 -17621287.583 10 0 59397 82800.00000 0 16907190.000 -11318660.153 -15381709.674 10 0 59397 83700.00000 0 18562056.887 -11881570.012 -12843288.323 10 0 59397 84600.00000 0 19860833.547 -12458626.514 -10055389.957 10 0 59397 85500.00000 0 20785788.752 -12993165.140 -7072207.744 10 0 59398 0.00000 0 21332364.442 -13427705.566 -3951705.429 10 0 59398 900.00000 0 21509175.759 -13706552.081 -754488.697 10 0 59398 1800.00000 0 21337473.906 -13778331.131 2457372.640 10 0 59398 2700.00000 0 20850094.866 -13598357.063 5621549.813 10 0 59398 3600.00000 0 20089940.457 -13130727.681 8676663.095 10 0 59398 4500.00000 0 19108055.843 -12350059.871 11563469.404 10 0 59398 5400.00000 0 17961385.466 -11242792.490 14226006.559 10 0 59398 6300.00000 0 16710302.033 -9808001.208 16612672.347 10 0 59398 7200.00000 0 15416012.504 -8057690.678 18677217.935 10 0 59398 8100.00000 0 14137949.796 -6016551.113 20379637.113 10 0 59398 9000.00000 0 12931259.092 -3721188.480 21686934.977 10 0 59398 9900.00000 0 11844483.499 -1218859.412 22573761.910 10 0 59398 10800.00000 0 10917545.237 1434237.851 23022901.406 10 0 59398 11700.00000 0 10180106.094 4175046.935 23025602.813 10 0 59398 12600.00000 0 9650375.185 6936026.166 22581752.827 10 0 59398 13500.00000 0 9334413.446 9647713.880 21699882.441 10 0 59398 14400.00000 0 9225963.777 12241381.266 20397008.770 10 0 59398 15300.00000 0 9306813.989 14651663.855 18698314.206 10 0 59398 16200.00000 0 9547677.576 16819063.414 16636668.162 10 0 59398 17100.00000 0 9909555.701 18692217.013 14251999.596 10 0 59398 18000.00000 0 10345523.572 20229839.114 11590531.461 10 0 59398 18900.00000 0 10802866.349 21402255.900 8703890.919 10 0 59398 19800.00000 0 11225474.709 22192467.685 5648111.816 10 0 59398 20700.00000 0 11556398.896 22596694.683 2482548.415 10 0 59398 21600.00000 0 11740452.924 22624383.094 -731278.678 10 0 59398 22500.00000 0 11726758.098 22297671.074 -3930881.730 10 0 59398 23400.00000 0 11471117.241 21650337.029 -7054026.337 10 0 59398 24300.00000 0 10938117.882 20726274.680 -10039948.658 10 0 59398 25200.00000 0 10102874.011 19577559.488 -12830544.923 10 0 59398 26100.00000 0 8952331.273 18262188.439 -15371509.131 10 0 59398 27000.00000 0 7486078.945 16841589.076 -17613396.043 10 0 59398 27900.00000 0 5716632.988 15378003.334 -19512588.253 10 0 59398 28800.00000 0 3669176.966 13931856.986 -21032148.031 10 0 59398 29700.00000 0 1380770.527 12559225.816 -22142537.296 10 0 59398 30600.00000 0 -1100942.396 11309505.328 -22822191.788 10 0 59398 31500.00000 0 -3719472.312 10223381.919 -23057938.454 10 0 59398 32400.00000 0 -6411597.910 9331190.452 -22845248.332 10 0 59398 33300.00000 0 -9109767.121 8651726.608 -22188320.373 10 0 59398 34200.00000 0 -11744685.820 8191563.152 -21099994.955 10 0 59398 35100.00000 0 -14247986.739 7944897.800 -19601499.093 10 0 59398 36000.00000 0 -16554867.906 7893937.997 -17722028.543 10 0 59398 36900.00000 0 -18606591.072 8009805.278 -15498175.136 10 0 59398 37800.00000 0 -20352736.601 8253919.983 -12973210.650 10 0 59398 38700.00000 0 -21753121.471 8579806.896 -10196241.252 10 0 59398 39600.00000 0 -22779301.070 8935244.701 -7221249.203 10 0 59398 40500.00000 0 -23415593.001 9264667.656 -4106040.659 10 0 59398 41400.00000 0 -23659581.170 9511717.352 -911120.265 10 0 59398 42300.00000 0 -23522080.167 9621836.205 2301485.205 10 0 59398 43200.00000 0 -23026562.694 9544792.647 5469431.059 10 0 59398 44100.00000 0 -22208075.185 9237031.028 8531263.191 10 0 59398 45000.00000 0 -21111688.176 8663746.802 11427607.242 10 0 59398 45900.00000 0 -19790547.261 7800599.211 14102315.495 10 0 59398 46800.00000 0 -18303606.961 6634989.050 16503549.587 10 0 59398 47700.00000 0 -16713142.740 5166847.373 18584778.502 10 0 59398 48600.00000 0 -15082145.343 3408901.453 20305673.238 10 0 59398 49500.00000 0 -13471706.100 1386405.985 21632881.661 10 0 59398 50400.00000 0 -11938501.948 -863650.269 22540669.288 10 0 59398 51300.00000 0 -10532484.485 -3293830.592 23011414.420 10 0 59398 52200.00000 0 -9294868.653 -5847977.181 23035948.589 10 0 59398 53100.00000 0 -8256504.274 -8463308.473 22613736.008 10 0 59398 54000.00000 0 -7436697.640 -11072801.467 21752888.575 10 0 59398 54900.00000 0 -6842531.858 -13607761.657 20470015.743 10 0 59398 55800.00000 0 -6468714.027 -16000475.159 18789911.527 10 0 59398 56700.00000 0 -6297955.482 -18186833.975 16745083.781 10 0 59398 57600.00000 0 -6301869.192 -20108825.991 14375133.797 10 0 59398 58500.00000 0 -6442346.769 -21716786.410 11725997.205 10 0 59398 59400.00000 0 -6673357.281 -22971316.861 8849059.917 10 0 59398 60300.00000 0 -6943092.147 -23844791.855 5800165.445 10 0 59398 61200.00000 0 -7196365.494 -24322389.136 2638532.482 10 0 59398 62100.00000 0 -7377168.168 -24402600.320 -574396.369 10 0 59398 63000.00000 0 -7431266.760 -24097199.956 -3776152.199 10 0 59398 63900.00000 0 -7308736.716 -23430673.938 -6904459.785 10 0 59398 64800.00000 0 -6966321.133 -22439131.199 -9898455.593 10 0 59398 65700.00000 0 -6369514.021 -21168744.520 -12699879.212 10 0 59398 66600.00000 0 -5494278.458 -19673786.348 -15254214.117 10 0 59398 67500.00000 0 -4328325.480 -18014342.718 -17511754.817 10 0 59398 68400.00000 0 -2871898.243 -16253801.955 -19428579.026 10 0 59398 69300.00000 0 -1138027.037 -14456224.254 -20967405.522 10 0 59398 70200.00000 0 847756.843 -12683703.090 -22098320.862 10 0 59398 71100.00000 0 3048237.495 -10993829.423 -22799360.935 10 0 59398 72000.00000 0 5415827.720 -9437365.123 -23056936.196 10 0 59398 72900.00000 0 7894325.071 -8056222.875 -22866092.718 10 0 59398 73800.00000 0 10421037.927 -6881836.615 -22230604.344 10 0 59398 74700.00000 0 12929193.225 -5933989.998 -21162894.500 10 0 59398 75600.00000 0 15350525.882 -5220150.886 -19683789.542 10 0 59398 76500.00000 0 17617942.261 -4735338.468 -17822108.644 10 0 59398 77400.00000 0 19668146.897 -4462527.232 -15614098.436 10 0 59398 78300.00000 0 21444123.304 -4373569.343 -13102723.538 10 0 59398 79200.00000 0 22897365.742 -4430595.173 -10336826.923 10 0 59398 80100.00000 0 23989769.205 -4587831.700 -7370176.675 10 0 59398 81000.00000 0 24695099.304 -4793760.852 -4260417.895 10 0 59398 81900.00000 0 24999981.300 -4993525.669 -1067950.361 10 0 59398 82800.00000 0 24904367.728 -5131481.837 2145245.860 10 0 59398 83700.00000 0 24421465.996 -5153786.119 5316813.784 10 0 59398 84600.00000 0 23577129.914 -5010911.839 8385228.326 10 0 59398 85500.00000 0 22408741.589 -4659984.843 11290986.903 99